Weather History for EHTW - January, 2014

Change the Weather History Date:

Thursday, January 23, 2014

  Actual Average Record
Temperature  
Mean Temperature 34 °F -  
Max Temperature 39 °F 40 °F 48 °F (2001)
Min Temperature 29 °F 30 °F 15 °F (2007)
Degree Days  
Heating Degree Days 31    
Moisture  
Dew Point 34 °F    
Average Humidity 94    
Maximum Humidity 100    
Minimum Humidity 82    
Precipitation  
Precipitation 0.04 in - - ()
Sea Level Pressure  
Sea Level Pressure 29.91 in    
Wind  
Wind Speed 4 mph ()    
Max Wind Speed 7 mph    
Max Gust Speed -    
Visibility 2.1 miles    
Events Fog , Rain    
Averages and records for this station are not official NWS values.
T = Trace of Precipitation, MM = Missing Value Source: Averaged Metar Reports

Daily Weather History Graph

Daily Weather History Graph

Search for Another Location

Airport or City:

Trip Planner

Search our weather history database for the weather conditions in past years. The results will help you decide how hot, cold, wet, or windy it might be!

Date:

Astronomy

Jan. 23, 2014 Rise Set
Actual Time 8:26 AM CET 5:02 PM CET
Civil Twilight 7:48 AM CET 5:40 PM CET
Nautical Twilight 7:06 AM CET 6:22 PM CET
Astronomical Twilight 6:26 AM CET 7:03 PM CET
Moon 12:11 AM CET (1/23) 10:54 AM CET (1/23)
Length of Visible Light 9h 52m
Length of Day
8h 36m
Waning Gibbous, 58% of the Moon is Illuminated
Jan 23
Waning Gibbous
Jan 24
Last Quarter
Jan 30
New
Feb 6
First Quarter
Feb 15
Full

Hourly Weather History & Observations

Time (CET) Temp. Dew Point Humidity Pressure Visibility Wind Dir Wind Speed Gust Speed Precip Events Conditions
12:00 AM 35 °F 35 °F 98% 29.97 in 1 mi SE 2.2 mph - -   Mist
1:00 AM 34 °F 34 °F 100% 29.97 in 0 mi SE 4.5 mph - - Fog Fog
2:00 AM 33 °F 33 °F 99% 29.97 in 0 mi SE 2.2 mph - - Fog Fog
3:00 AM 33 °F 33 °F 97% 29.97 in 0 mi SE 2.2 mph - - Fog Fog
4:00 AM 32 °F 32 °F 99% 29.97 in 0 mi ESE 2.2 mph - - Fog Fog
5:00 AM 31 °F 31 °F 97% 29.97 in 0 mi SE 2.2 mph - - Fog Fog
6:00 AM 30 °F 30 °F 100% 29.96 in 0 mi ESE 4.5 mph - - Fog Fog
7:00 AM 30 °F 30 °F 98% 29.96 in 1 mi ESE 4.5 mph - - Fog Fog
8:00 AM 30 °F 30 °F 99% 29.96 in 1 mi SE 4.5 mph - - Fog Fog
9:00 AM 31 °F 30 °F 96% 29.96 in 2 mi ESE 4.5 mph - -   Mist
10:00 AM 32 °F 31 °F 97% 29.96 in 3 mi SE 4.5 mph - -   Mist
11:00 AM 35 °F 33 °F 92% 29.96 in 3 mi SSE 4.5 mph - -   Mist
12:00 PM 37 °F 34 °F 85% 29.94 in 4 mi SSE 4.5 mph - -   Mist
1:00 PM 38 °F 35 °F 82% 29.91 in 4 mi SE 6.7 mph - -   Mist
2:00 PM 38 °F 35 °F 83% 29.89 in 5 mi SSE 6.7 mph - -   Mist
3:00 PM 38 °F 35 °F 82% 29.87 in 5 mi SSE 6.7 mph - -   Mist
4:00 PM 38 °F 36 °F 87% 29.86 in 3 mi SSE 4.5 mph - - Rain Light Rain Showers
5:00 PM 38 °F 36 °F 89% 29.85 in 3 mi SSE 6.7 mph - - Rain Heavy Rain
6:00 PM 37 °F 36 °F 96% 29.84 in 2 mi SSE 6.7 mph - - Rain Light Rain
7:00 PM 38 °F 37 °F 94% 29.83 in 2 mi SSE 6.7 mph - - Rain Rain
8:00 PM 38 °F 37 °F 96% 29.82 in 3 mi SSE 6.7 mph - -   Mist
9:00 PM 38 °F 38 °F 98% 29.81 in 2 mi SSE 4.5 mph - -   Mist
10:00 PM 39 °F 38 °F 92% 29.81 in 3 mi SSE 4.5 mph - -   Mist
11:00 PM 39 °F 37 °F 92% 29.81 in 3 mi SSE 4.5 mph - - Rain Rain Showers